Location: B?dargowo
(53.3916°N, 14.4413°E)
Time: 12:45:38
(UTC+00:00)

METEOR 2-5 DEB - Visible Passes

Search period start: 23 February 2024 00:00
Search period end: 04 March 2024 00:00
Orbit: 679 x 726 km, 81.2° (Epoch: 22 February)

Date Brightness Start Highest point End Pass type
(mag) Time Alt. Az. Time Alt. Az. Time Alt. Az.
23 Feb ? 03:55:09 10° N 03:59:44 45° ENE 04:04:18 10° SE visible
23 Feb ? 18:26:03 10° SSW 18:30:47 60° WNW 18:35:31 10° N visible
23 Feb ? 20:09:54 10° WNW 20:11:39 12° NW 20:13:24 10° NNW visible
24 Feb ? 02:59:35 10° N 03:03:10 21° ENE 03:06:45 10° ESE visible
24 Feb ? 04:38:44 10° NNW 04:43:28 69° W 04:48:12 10° S visible
24 Feb ? 17:29:58 10° S 17:34:39 56° E 17:39:19 10° NNE visible
24 Feb ? 19:10:51 10° WSW 19:14:47 25° WNW 19:18:41 10° N visible
25 Feb ? 03:42:37 10° N 03:47:15 48° ENE 03:51:51 10° SE visible
25 Feb ? 05:22:51 10° NNW 05:26:46 26° W 05:30:42 10° SW visible
25 Feb ? 18:13:32 10° SSW 18:18:14 56° WNW 18:22:56 10° N visible
25 Feb ? 19:57:47 10° WNW 19:59:09 11° NW 20:00:32 10° NNW visible
26 Feb ? 02:46:56 10° N 02:50:38 22° ENE 02:54:20 10° ESE visible
26 Feb ? 04:26:09 10° NNW 04:30:52 64° W 04:35:34 10° S visible
26 Feb ? 17:17:19 10° S 17:22:00 60° E 17:26:42 10° NNE visible
26 Feb ? 18:58:22 10° WSW 19:02:11 23° WNW 19:06:00 10° N visible
27 Feb ? 01:52:50 10° NE 01:53:37 10° NE 01:54:24 10° ENE visible
27 Feb ? 03:29:57 10° N 03:34:36 52° ENE 03:39:16 10° SSE visible
27 Feb ? 05:10:16 10° NW 05:14:04 25° W 05:17:55 10° SW visible
27 Feb ? 18:00:54 10° SSW 18:05:33 52° WNW 18:10:13 10° N visible
27 Feb ? 19:45:41 10° WNW 19:46:31 10° NW 19:47:22 10° NW visible
28 Feb ? 02:34:08 10° N 02:37:57 23° ENE 02:41:45 10° ESE visible
28 Feb ? 04:13:26 10° NNW 04:18:08 60° W 04:22:50 10° S visible
28 Feb ? 17:04:31 10° S 17:09:14 64° E 17:13:57 10° NNE visible
28 Feb ? 18:45:45 10° WSW 18:49:27 22° WNW 18:53:10 10° N visible
29 Feb ? 01:39:35 10° NNE 01:40:53 11° NE 01:42:13 10° ENE visible
29 Feb ? 03:17:07 10° N 03:21:49 55° ENE 03:26:31 10° SSE visible
29 Feb ? 04:57:31 10° NW 05:01:14 23° W 05:04:58 10° SW visible
29 Feb ? 17:48:06 10° SW 17:52:43 49° WNW 17:57:21 10° N visible
01 Mar ? 02:21:13 10° N 02:25:07 24° ENE 02:29:02 10° ESE visible
01 Mar ? 04:00:35 10° NNW 04:05:15 56° W 04:09:56 10° S visible
01 Mar ? 18:32:59 10° WSW 18:36:35 21° WNW 18:40:10 10° N visible
02 Mar ? 01:26:21 10° NNE 01:28:01 12° NE 01:29:42 10° ENE visible
02 Mar ? 03:04:09 10° N 03:08:53 59° ENE 03:13:37 10° SSE visible
02 Mar ? 04:44:38 10° NW 04:48:15 22° W 04:51:53 10° SW visible
02 Mar ? 17:35:11 10° SW 17:39:45 46° WNW 17:44:20 10° N visible
03 Mar ? 02:08:09 10° N 02:12:09 26° ENE 02:16:09 10° ESE visible
03 Mar ? 03:47:34 10° NNW 03:52:13 53° W 03:56:53 10° S visible
03 Mar ? 18:20:05 10° WSW 18:23:34 20° WNW 18:27:03 10° NNW visible
